Regional Weather Roundup
Issued by NWS Charleston, SC

Current Version | Previous Version | Graphics & Text | Print | Product List | Glossary On
Versions: 1 2 3 4 5 6 7 8 9 10 11 12 13 14 15 16 17 18 19 20 21 22 23 24 25 26 27 28 29 30 31 32 33 34 35 36 37 38 39 40 41 42 43 44 45 46 47 48 49 50
000
ASUS42 KCHS 251512
RWRCHS

REGIONAL WEATHER ROUNDUP
NATIONAL WEATHER SERVICE CHARLESTON SC
1100 AM EDT SAT MAR 25 2017

NOTE: "FAIR" INDICATES FEW OR NO CLOUDS BELOW 12,000 FEET WITH NO
SIGNIFICANT WEATHER AND/OR OBSTRUCTIONS TO VISIBILITY.

NOT ALL STATIONS ARE QUALITY CONTROLLED. USE DATA WITH CAUTION...
ESPECIALLY DEWPOINT OBSERVATIONS.

SCZ027-030-031-034>040-042>050-251600-
...SOUTHEAST SOUTH CAROLINA...

CITY           SKY/WX    TMP DP  RH WIND       PRES   REMARKS
N CHARLESTON   CLOUDY    73  49  42 SE12      30.35S
WATERFRONT PRK   N/A     64  57  78 VRB2      30.34S
JOHNS ISLAND   CLOUDY    72  54  53 E7        30.36R
PINOPOLIS        N/A     68  55  64 VRB2      30.26S
MONCKS CORNER  PTSUNNY   70  50  49 S8        30.35S
SUMMERVILLE    CLOUDY    70  50  49 SE6       30.36S
BEAUFORT MCAS  CLOUDY    70  59  68 SE5       30.35R
BEAUFORT ARPT  CLOUDY    68  55  64 SE3       30.34S
HILTON HEAD IS PTSUNNY   68  57  68 E3        30.35R
WALTERBORO     CLOUDY    68  54  60 SE8       30.35S
ALLENDALE      FAIR      70  55  60 SE10      30.32F

...SOUTHERN MIDLANDS AND PEE DEE...

CITY           SKY/WX    TMP DP  RH WIND       PRES   REMARKS
GEORGETOWN     CLOUDY    68  54  60 S3        30.37S
KINGSTREE      FAIR      70  52  52 S7        30.35S
ORANGEBURG     CLOUDY    69  54  58 S10       30.34F
BARNWELL       FAIR      70  57  64 VRB7      30.33S
AIKEN          FAIR      64  54  68 S10       30.36S
MANNING        FAIR      68  52  56 S6        30.35S
COLUMBIA       CLOUDY    69  55  60 SE5       30.32F
SUMTER         PTSUNNY   69  52  55 S12       30.31F
FLORENCE       MOSUNNY   70  53  54 S9        30.35S
MYRTLE BEACH   CLOUDY    72  48  43 W9        30.37S
N MYRTLE BEACH CLOUDY    71  50  47 SW8       30.36F

$$

GAZ063-065-086>088-099>101-113>116-118-119-134>141-150-251600-
...SOUTHEAST GEORGIA...

CITY           SKY/WX    TMP DP  RH WIND       PRES   REMARKS
SAVANNAH ARPT  CLOUDY    72  51  47 SE6       30.34R
HUNTER AAF     PTSUNNY   73  56  53 SE7       30.31R
FORT STEWART   CLOUDY    72  56  55 E8        30.30S
STATESBORO     MOSUNNY   72  58  60 S8        30.33S
SYLVANIA       PTSUNNY  N/A N/A N/A S6        30.33F
CLAXTON        FAIR     N/A N/A N/A E8        30.32S

...CSRA...CENTRAL AND FAR SOUTHEAST GEORGIA...

CITY           SKY/WX    TMP DP  RH WIND       PRES   REMARKS
THOMSON        PTSUNNY   68  55  64 W7        30.36F
AUGUSTA-BUSH   PTSUNNY   69  58  67 SE5       30.32F
AUGUSTA-DANIEL MOSUNNY   66  54  65 S5        30.33S
SWAINSBORO     FAIR      70  55  60 SE13      30.32S
VIDALIA        MOSUNNY   72  59  64 SE8       30.31S
EASTMAN        FAIR      73  48  42 S10       30.32F
HAZLEHURST     FAIR      72  61  68 SE6       30.30S
ALMA           MOSUNNY   71  59  65 SE8       30.30S
WAYCROSS       MOSUNNY   74  63  68 SE8       30.31S
JESUP          FAIR      72  57  60 SE5       30.32S
BAXLEY         FAIR      72  63  73 SE8       30.30S
BRUNSWICK      PTSUNNY   73  61  64 SE9       30.33R
SAINT SIMONS   CLOUDY    71  59  65 E8        30.32R

$$

SCZ027-028-034-036>038-045-046-048>050-GAZ119-141-251600-
...LAKE AND SUPPLEMENTAL COASTAL OBSERVATIONS...

STATION/POSITION TIME  TEMP    WIND        PRES    WAVE   SWELL
                       AIR SEA DIR/SP/G            HT/PER HT/PER/DIR
                 (UTC) (F)     (DEG/KT/KT) (MB)    (FT/S) (FT/S/D)
WINYAH BAY       NOT AVBL
LAKE MURRAY      1420   62     160/  2/  3 1026.8
ACE BASIN NERRS  NOT AVBL
FORT PULASKI     1448   65 61   90/  6/  7 1027.6R
SAPELO ISLAND    1400   70     110/  5     1027.0

$$

ANZ835-935-AMZ111-154-330-350-352-354-370-450-454-472-251600-
...C-MAN AND BUOY OBSERVATIONS...

STATION/POSITION TIME  TEMP    WIND        PRES    WAVE   SWELL
                       AIR SEA DIR/SP/G            HT/PER HT/PER/DIR
                 (UTC) (F)     (DEG/KT/KT) (MB)    (FT/S) (FT/S/D)
BUOY 41004       1450   70 70  120/  8/ 10 1027.8R   4/ 8   3/150/ 8
BUOY 41008       1450   65 62  100/  6/  8 1026.7R   4/ 8   3/100/ 8
FOLLY BEACH CMAN 1400   64      90/  2/  3 1028.4R
CAPERS NEARSHORE 1408   63      20/  2/  4 1028.1R
FRIPP NEARSHORE  1408   63 60   30/  2/  6 1027.1R


STATION/POSITION TIME  TEMP    WIND        PRES    WAVE   SWELL
                       AIR SEA DIR/SP/G            HT/PER HT/PER/DIR
                 (UTC) (F)     (DEG/KT/KT) (MB)    (FT/S) (FT/S/D)
5E ST. MARYS GA  1430      64                N/A     4/ 9   2/110/11
FRYING PAN BUOY  1450   69 72  170/ 10/ 16 1028.5R   4/ 7   3/140/ 7
BUOY 41025       1450   69 76  270/ 14/ 17 1028.5R   3/ 5   2/110/11
CAPE LOOKOUT NC  1400   69     210/  5/  6 1028.3R
BUOY 41002       1450   65 73   90/ 12/ 14 1029.6R   5/ 8   3/110/ 8
BUOY 41010       NOT AVBL
ST AUGUSTINE FL  1500   67 66  110/  8/  8 1026.8R


$$




USA.gov is the U.S. government's official web portal to all federal, state and local government web resources and services.